When you browse on this site, cookies collect data to enhance your experience and personalize the content and advertising you see.
Visit our Privacy Policy to learn more. By continuing to use the site, you agree to this use of cookies and data.
  • en Suisse
  • Liste des pays
  • À 7 jours
  • Température de l'eau
  • Carte satellitaire
  • Carte météo
  • Widgets météo
  • user-avatar
    Se connecter

    Météo par heure à Xuanzhou

    Ce jour, 26 Mai, Dimanche

    Heure Température Précipitation Vent Pression Humidité
    00:00 +24°C° 2.3 mm 2 m/s 753 mmHg 96%
    01:00 +24°C° 2.3 mm 2 m/s 753 mmHg 96%
    02:00 +24°C° 0 mm 1 m/s 752 mmHg 97%
    03:00 +24°C° 4.3 mm 1 m/s 752 mmHg 97%
    04:00 +24°C° 4.3 mm 1 m/s 752 mmHg 97%
    05:00 +24°C° 4.3 mm 1 m/s 752 mmHg 97%
    06:00 +24°C° 0.9 mm 2 m/s 752 mmHg 95%
    07:00 +25°C° 0.9 mm 2 m/s 752 mmHg 93%
    08:00 +26°C° 0 mm 3 m/s 752 mmHg 91%
    09:00 +27°C° 0.3 mm 4 m/s 751 mmHg 86%
    10:00 +28°C° 0.3 mm 5 m/s 751 mmHg 81%
    11:00 +30°C° 0.3 mm 6 m/s 751 mmHg 76%
    12:00 +29°C° 1.3 mm 5 m/s 751 mmHg 78%
    13:00 +29°C° 1.3 mm 5 m/s 751 mmHg 80%
    14:00 +29°C° 0 mm 4 m/s 751 mmHg 81%
    15:00 +28°C° 1.1 mm 3 m/s 751 mmHg 83%
    16:00 +28°C° 1.1 mm 2 m/s 751 mmHg 84%
    17:00 +28°C° 1.1 mm 2 m/s 751 mmHg 86%
    18:00 +27°C° 1.4 mm 2 m/s 751 mmHg 87%
    19:00 +27°C° 1.4 mm 1 m/s 751 mmHg 89%
    20:00 +24°C° 0 mm 0 m/s 751 mmHg 89%
    21:00 +25°C° 0.1 mm 1 m/s 752 mmHg 90%
    22:00 +25°C° 0.1 mm 1 m/s 752 mmHg 91%
    23:00 +25°C° 0.1 mm 1 m/s 752 mmHg 92%

    Demain, 27 Mai, Lundi

    Heure Température Précipitation Vent Pression Humidité
    00:00 +25°C° 0 mm 1 m/s 752 mmHg 92%
    01:00 +24°C° 0 mm 1 m/s 752 mmHg 93%
    02:00 +24°C° 0 mm 1 m/s 752 mmHg 93%
    03:00 +24°C° 0 mm 1 m/s 752 mmHg 94%
    04:00 +24°C° 0 mm 1 m/s 752 mmHg 94%
    05:00 +24°C° 0 mm 2 m/s 753 mmHg 94%
    06:00 +25°C° 0 mm 2 m/s 753 mmHg 90%
    07:00 +27°C° 0 mm 2 m/s 753 mmHg 85%
    08:00 +28°C° 0 mm 2 m/s 754 mmHg 81%
    09:00 +29°C° 0.7 mm 2 m/s 754 mmHg 75%
    10:00 +31°C° 0.7 mm 3 m/s 754 mmHg 69%
    11:00 +33°C° 0.7 mm 3 m/s 754 mmHg 63%
    12:00 +32°C° 2 mm 4 m/s 754 mmHg 67%
    13:00 +32°C° 2 mm 5 m/s 755 mmHg 71%
    14:00 +30°C° 2 mm 6 m/s 755 mmHg 75%
    15:00 +29°C° 0.5 mm 5 m/s 755 mmHg 77%
    16:00 +27°C° 0.5 mm 5 m/s 756 mmHg 78%
    17:00 +26°C° 0.5 mm 4 m/s 756 mmHg 79%
    18:00 +25°C° 0 mm 4 m/s 757 mmHg 77%
    19:00 +23°C° 0 mm 4 m/s 758 mmHg 75%
    20:00 +22°C° 0 mm 4 m/s 758 mmHg 73%
    21:00 +21°C° 0 mm 4 m/s 759 mmHg 72%
    22:00 +20°C° 0 mm 4 m/s 760 mmHg 71%
    23:00 +19°C° 0 mm 4 m/s 761 mmHg 69%

    Après-demain, 28 Mai, Mardi

    Heure Température Précipitation Vent Pression Humidité
    00:00 +18°C° 0 mm 3 m/s 761 mmHg 70%
    01:00 +18°C° 0 mm 2 m/s 761 mmHg 71%
    02:00 +17°C° 0 mm 2 m/s 761 mmHg 72%
    03:00 +16°C° 0 mm 2 m/s 761 mmHg 73%
    04:00 +16°C° 0 mm 2 m/s 761 mmHg 74%
    05:00 +16°C° 0 mm 1 m/s 761 mmHg 75%
    06:00 +17°C° 0 mm 2 m/s 761 mmHg 70%
    07:00 +19°C° 0 mm 3 m/s 761 mmHg 64%
    08:00 +20°C° 0 mm 4 m/s 761 mmHg 59%
    09:00 +22°C° 0 mm 4 m/s 761 mmHg 55%
    10:00 +23°C° 0 mm 5 m/s 761 mmHg 51%
    11:00 +25°C° 0 mm 5 m/s 761 mmHg 47%
    12:00 +26°C° 0 mm 5 m/s 760 mmHg 45%
    13:00 +27°C° 0 mm 5 m/s 760 mmHg 43%
    14:00 +27°C° 0 mm 5 m/s 759 mmHg 41%
    15:00 +27°C° 0 mm 4 m/s 759 mmHg 43%
    16:00 +27°C° 0 mm 4 m/s 759 mmHg 44%
    17:00 +27°C° 0 mm 3 m/s 759 mmHg 46%
    18:00 +25°C° 0 mm 3 m/s 759 mmHg 48%
    19:00 +22°C° 0 mm 3 m/s 759 mmHg 50%
    20:00 +20°C° 0 mm 2 m/s 760 mmHg 52%
    21:00 +19°C° 0 mm 2 m/s 760 mmHg 54%
    22:00 +19°C° 0 mm 2 m/s 760 mmHg 55%
    23:00 +18°C° 0 mm 2 m/s 760 mmHg 56%

    29 Mai, Mercredi

    Heure Température Précipitation Vent Pression Humidité
    00:00 +18°C° 0 mm 2 m/s 760 mmHg 59%
    01:00 +17°C° 0 mm 2 m/s 759 mmHg 62%
    02:00 +17°C° 0 mm 2 m/s 759 mmHg 65%
    03:00 +16°C° 0 mm 2 m/s 759 mmHg 64%
    04:00 +16°C° 0 mm 2 m/s 759 mmHg 63%
    05:00 +16°C° 0 mm 1 m/s 759 mmHg 62%
    06:00 +17°C° 0 mm 2 m/s 759 mmHg 61%
    07:00 +18°C° 0 mm 2 m/s 759 mmHg 60%
    08:00 +19°C° 0 mm 2 m/s 759 mmHg 59%
    09:00 +21°C° 0 mm 3 m/s 759 mmHg 50%
    10:00 +25°C° 0 mm 3 m/s 759 mmHg 42%
    11:00 +27°C° 0 mm 4 m/s 759 mmHg 34%
    12:00 +28°C° 0 mm 4 m/s 758 mmHg 32%
    13:00 +29°C° 0 mm 5 m/s 757 mmHg 30%
    14:00 +30°C° 0 mm 5 m/s 756 mmHg 28%
    15:00 +30°C° 0 mm 5 m/s 756 mmHg 33%
    16:00 +29°C° 0 mm 4 m/s 756 mmHg 38%
    17:00 +29°C° 0 mm 4 m/s 755 mmHg 42%
    18:00 +27°C° 0 mm 4 m/s 755 mmHg 47%
    19:00 +25°C° 0 mm 4 m/s 756 mmHg 51%
    20:00 +22°C° 0 mm 4 m/s 756 mmHg 55%
    21:00 +21°C° 0 mm 3 m/s 756 mmHg 56%
    22:00 +20°C° 0 mm 3 m/s 756 mmHg 57%
    23:00 +20°C° 0 mm 2 m/s 756 mmHg 58%

    30 Mai, Jeudi

    Heure Température Précipitation Vent Pression Humidité
    00:00 +20°C° 0 mm 2 m/s 756 mmHg 56%
    01:00 +20°C° 0 mm 2 m/s 755 mmHg 55%
    02:00 +21°C° 0 mm 1 m/s 755 mmHg 54%
    03:00 +21°C° 0 mm 1 m/s 755 mmHg 54%
    04:00 +21°C° 0 mm 1 m/s 755 mmHg 54%
    05:00 +20°C° 0 mm 1 m/s 755 mmHg 55%
    06:00 +22°C° 0 mm 1 m/s 755 mmHg 54%
    07:00 +24°C° 0 mm 1 m/s 756 mmHg 53%
    08:00 +26°C° 0 mm 1 m/s 756 mmHg 51%
    09:00 +27°C° 0 mm 1 m/s 756 mmHg 51%
    10:00 +28°C° 0 mm 1 m/s 756 mmHg 51%
    11:00 +28°C° 0 mm 1 m/s 756 mmHg 51%
    12:00 +28°C° 0 mm 2 m/s 756 mmHg 55%
    13:00 +28°C° 0 mm 2 m/s 755 mmHg 59%
    14:00 +27°C° 0 mm 2 m/s 755 mmHg 62%
    15:00 +26°C° 0.5 mm 2 m/s 755 mmHg 68%
    16:00 +24°C° 0.5 mm 2 m/s 755 mmHg 75%
    17:00 +22°C° 0.5 mm 1 m/s 755 mmHg 81%
    18:00 +21°C° 0.5 mm 2 m/s 755 mmHg 83%
    19:00 +21°C° 0.5 mm 2 m/s 755 mmHg 85%
    20:00 +20°C° 0.5 mm 2 m/s 756 mmHg 87%
    21:00 +20°C° 0.1 mm 2 m/s 756 mmHg 87%
    22:00 +22°C° 0.1 mm 1 m/s 756 mmHg 88%
    23:00 +22°C° 0.1 mm 1 m/s 756 mmHg 89%

    31 Mai, Vendredi

    Heure Température Précipitation Vent Pression Humidité
    00:00 +22°C° 1.3 mm 1 m/s 756 mmHg 90%
    01:00 +22°C° 1.3 mm 1 m/s 756 mmHg 92%
    02:00 +22°C° 1.3 mm 1 m/s 756 mmHg 94%
    03:00 +21°C° 0.2 mm 1 m/s 756 mmHg 93%
    04:00 +20°C° 0.2 mm 2 m/s 756 mmHg 93%
    05:00 +20°C° 0.2 mm 3 m/s 756 mmHg 92%
    06:00 +21°C° 0 mm 3 m/s 756 mmHg 85%
    07:00 +24°C° 0 mm 3 m/s 757 mmHg 79%
    08:00 +25°C° 0 mm 3 m/s 757 mmHg 72%
    09:00 +26°C° 0 mm 3 m/s 757 mmHg 65%
    10:00 +27°C° 0 mm 4 m/s 757 mmHg 58%
    11:00 +28°C° 0 mm 5 m/s 757 mmHg 50%
    12:00 +29°C° 0 mm 4 m/s 756 mmHg 47%
    13:00 +30°C° 0 mm 4 m/s 755 mmHg 44%
    14:00 +32°C° 0 mm 4 m/s 755 mmHg 41%
    15:00 +32°C° 0 mm 4 m/s 755 mmHg 44%
    16:00 +30°C° 0 mm 4 m/s 754 mmHg 47%
    17:00 +30°C° 0 mm 3 m/s 754 mmHg 50%
    18:00 +28°C° 0 mm 3 m/s 755 mmHg 55%
    19:00 +26°C° 0 mm 3 m/s 755 mmHg 59%
    20:00 +24°C° 0 mm 2 m/s 755 mmHg 64%
    21:00 +23°C° 0 mm 2 m/s 755 mmHg 65%
    22:00 +21°C° 0 mm 2 m/s 755 mmHg 65%
    23:00 +21°C° 0 mm 2 m/s 755 mmHg 66%
    Voir plus